Regional Weather Roundup
Issued by NWS Albany, NY

Home | Current Version | Previous Version | Text Only | Print | Product List | Glossary On
Versions: 1 2 3 4 5 6 7 8 9 10 11 12 13 14 15 16 17 18 19 20 21 22 23 24 25 26 27
000
ASUS41 KALY 261010
RWRALY

NEW YORK STATE HOURLY WEATHER ROUNDUP
NATIONAL WEATHER SERVICE ALBANY NY
600 AM EDT FRI AUG 26 2016

NOTE: "FAIR" INDICATES FEW OR NO CLOUDS BELOW 12,000 FEET WITH NO
SIGNIFICANT WEATHER AND/OR NO OBSTRUCTIONS TO VISIBILITY.

NYZ032-033-038>043-046>054-057>066-NYZ062>081-082-084-261100-
EAST


CITY           SKY/WX    TMP DP  RH WIND       PRES   REMARKS
ALBANY         CLOUDY    72  70  93 S3        29.93S
GLENS FALLS    CLOUDY    71  69  93 S5        29.92S FOG
POUGHKEEPSIE   MOCLDY    70  68  93 CALM      29.95S
NEWBURGH       MOCLDY    72  72 100 CALM      29.98S
MONTGOMERY     CLOUDY    71  69  93 CALM      29.97R
WHITE PLAINS   FAIR      73  70  90 CALM      29.98S
ISLIP          FAIR      74  70  87 SW10      29.99R
NEW YORK CITY  FAIR      77  70  79 S10       29.97R
CENTRAL PARK     N/A     75  70  83 MISG        N/A
$$

NYZ005>009-017-018-044>046-055-056-261100-
CENTRAL


CITY           SKY/WX    TMP DP  RH WIND       PRES   REMARKS
FULTON         CLOUDY    73  71  93 W7        29.98R
SYRACUSE       CLOUDY    73  71  93 W9        29.96R
ROME           LGT RAIN  72  72 100 W6        29.96R
ELMIRA         CLOUDY    72  69  90 SW6       30.02R
BINGHAMTON     CLOUDY    70  69  97 W7        30.03R
MONTICELLO     CLOUDY    68  68 100 CALM      30.02S VSB 1/2
$$

NYZ026>034-041>043-087-261100-
NORTH


CITY           SKY/WX    TMP DP  RH WIND       PRES   REMARKS
WATERTOWN      MOCLDY    70  68  93 W3        29.95R
FORT DRUM      NOT AVBL
MASSENA        FAIR      69  66  90 SW5       29.92R
SARANAC LAKE   CLOUDY    68  66  93 VRB3      29.96R
PLATTSBURGH    LGT RAIN  69  68  96 S5        29.89R
$$

NYZ001>004-010>016-019>021-085-261100-
WEST


CITY           SKY/WX    TMP DP  RH WIND       PRES   REMARKS
NIAGARA FALLS  FAIR      68  66  93 SW3       30.04R FOG
BUFFALO        FAIR      70  68  93 W6        30.04R
DUNKIRK        FAIR      69  68  96 S3        30.05R
JAMESTOWN      FAIR      70  64  83 NW9       30.10R
WELLSVILLE     FAIR      67  64  90 W10       30.11R
ROCHESTER      MOCLDY    73  70  90 NW8       30.02R
PENN YAN       CLOUDY    72  69  90 W6        30.03R
$$

             KEY
       WCI = WIND CHILL INDEX
       VSB = VISIBILITY
       HX  = HEAT INDEX
$$




USA.gov is the U.S. government's official web portal to all federal, state and local government web resources and services.